Stations météo

réclame
Mon MeteoGroup
Koblenz/Falkensteinkaserne, Allemagne (10516): Température de l'air & dewpoint: 18.10.2018 07:00:00 - 24.10.2018 07:00:00 (CEST)Koblenz/Falkensteinkaserne, Allemagne (10516): Vitesse du vent: 18.10.2018 07:00:00 - 24.10.2018 07:00:00 (CEST)Koblenz/Falkensteinkaserne, Allemagne (10516): Direction du vent: 18.10.2018 07:00:00 - 24.10.2018 07:00:00 (CEST)Koblenz/Falkensteinkaserne, Allemagne (10516): reduced air pressure: 18.10.2018 07:00:00 - 24.10.2018 07:00:00 (CEST)Koblenz/Falkensteinkaserne, Allemagne (10516): visibility: 18.10.2018 07:00:00 - 24.10.2018 07:00:00 (CEST)
Date & Time tt [°C] td [°C] ff [km/h] ff [knt] dd ppp [hPa] vv [km]
24.10.2018 07:00:00 13,4 10,4 14 8 WNW 1021,4 15
24.10.2018 06:00:00 12,8 10,3 18 10 WNW 1021,7 -
24.10.2018 05:00:00 13,7 9,3 14 8 WNW 1021,3 -
24.10.2018 04:00:00 13,1 8,9 11 6 WNW 1022,1 -
24.10.2018 03:00:00 12,6 8,9 7 4 W 1022,2 -
24.10.2018 02:00:00 12,2 8,7 11 6 W 1022,9 -
24.10.2018 01:00:00 12,1 8,4 11 6 WSW 1023,3 -
24.10.2018 00:00:00 12,4 8,2 11 6 W 1023,8 -
23.10.2018 23:00:00 12,6 8,0 11 6 W 1024,3 -
23.10.2018 22:00:00 12,1 7,8 11 6 WNW 1024,5 -
23.10.2018 21:00:00 13,2 6,4 14 8 WNW 1024,5 15
23.10.2018 20:00:00 13,6 5,6 18 10 WNW 1024,3 15
23.10.2018 19:00:00 13,9 6,0 11 6 NW 1023,2 15
23.10.2018 18:00:00 14,0 6,1 11 6 NNW 1023,2 15
23.10.2018 17:00:00 15,0 4,9 11 6 W 1022,6 15
23.10.2018 16:00:00 14,5 4,5 11 6 SW 1023,1 15
23.10.2018 15:00:00 12,5 4,0 14 8 SW 1023,8 15
23.10.2018 14:00:00 11,3 4,3 11 6 SW 1025,4 15
23.10.2018 13:00:00 9,6 4,1 11 6 SSW 1026,7 15
23.10.2018 12:00:00 8,4 4,5 7 4 SW 1027,4 15
23.10.2018 11:00:00 6,9 4,8 7 4 W 1028,4 15
23.10.2018 10:00:00 5,3 4,1 7 4 NNW 1028,8 10
23.10.2018 09:00:00 4,6 3,7 4 2 N 1029,7 10
23.10.2018 08:00:00 4,6 3,8 7 4 SSW 1029,6 8
23.10.2018 07:00:00 4,5 3,9 4 2 N 1030,3 8
23.10.2018 06:00:00 4,5 3,9 4 2 N 1030,7 -
23.10.2018 05:00:00 4,7 4,0 4 2 N 1031,3 -
23.10.2018 04:00:00 5,2 4,5 7 4 SSW 1032,7 -
23.10.2018 03:00:00 5,7 4,9 7 4 SW 1032,9 -
23.10.2018 02:00:00 5,2 4,4 4 2 N 1033,3 -
23.10.2018 01:00:00 6,1 5,1 4 2 WNW 1033,4 -
23.10.2018 00:00:00 7,1 5,9 4 2 N 1033,5 -
22.10.2018 23:00:00 8,5 6,8 4 2 N 1033,5 -
22.10.2018 22:00:00 9,2 7,1 4 2 W 1033,9 -
22.10.2018 21:00:00 9,0 6,7 4 2 N 1033,3 20
22.10.2018 20:00:00 10,2 6,7 4 2 N 1033,0 20
22.10.2018 19:00:00 10,4 6,0 4 2 WNW 1032,8 20
22.10.2018 18:00:00 12,7 6,9 11 6 N 1032,1 15
22.10.2018 17:00:00 12,4 8,0 7 4 WNW 1031,1 15
22.10.2018 16:00:00 12,3 7,7 7 4 NNW 1031,1 10
22.10.2018 15:00:00 10,5 7,0 7 4 N 1031,2 10
22.10.2018 14:00:00 9,3 6,2 4 2 N 1031,3 10
22.10.2018 13:00:00 9,1 4,9 4 2 N 1031,2 15
22.10.2018 12:00:00 8,1 4,6 4 2 N 1031,1 15
22.10.2018 11:00:00 7,2 4,3 4 2 N 1030,9 15
22.10.2018 10:00:00 6,4 4,6 4 2 N 1030,4 13
22.10.2018 09:00:00 5,0 3,9 4 2 N 1029,9 9
22.10.2018 08:00:00 3,9 3,0 7 4 W 1029,3 8
22.10.2018 07:00:00 3,7 2,9 4 2 WNW 1029,1 -
22.10.2018 06:00:00 4,1 3,2 4 2 SSE 1028,5 -
22.10.2018 05:00:00 3,6 2,6 4 2 N 1028,5 -
22.10.2018 04:00:00 4,5 3,4 4 2 N 1028,1 -
22.10.2018 03:00:00 4,5 3,3 4 2 NW 1028,3 -
22.10.2018 02:00:00 5,3 3,8 4 2 N 1028,2 -
22.10.2018 01:00:00 6,3 4,7 4 2 SSW 1027,9 -
22.10.2018 00:00:00 7,3 5,0 4 2 N 1027,9 -
21.10.2018 23:00:00 7,7 5,6 4 2 SSW 1027,8 -
21.10.2018 22:00:00 8,5 5,6 4 2 W 1027,6 -
21.10.2018 21:00:00 9,2 6,1 4 2 SSW 1027,6 -
21.10.2018 20:00:00 10,2 6,2 4 2 ENE 1027,3 -
21.10.2018 19:00:00 12,1 5,8 4 2 SSW 1027,2 -
21.10.2018 18:00:00 14,8 5,0 4 2 NW 1026,9 -
21.10.2018 17:00:00 15,7 4,1 4 2 N 1027,1 -
21.10.2018 16:00:00 15,9 4,7 4 2 ENE 1027,8 -
21.10.2018 15:00:00 13,6 5,7 4 2 N 1028,5 -
21.10.2018 14:00:00 10,7 5,3 7 4 NNW 1029,3 -
21.10.2018 13:00:00 7,9 4,9 7 4 NNW 1030,4 -
21.10.2018 12:00:00 6,0 5,3 4 2 N 1031,0 -
21.10.2018 11:00:00 5,5 4,9 4 2 N 1031,5 -
21.10.2018 10:00:00 5,2 4,6 4 2 N 1031,4 -
21.10.2018 09:00:00 4,8 4,2 4 2 N 1030,8 -
21.10.2018 08:00:00 5,0 4,3 4 2 W 1030,5 -
21.10.2018 07:00:00 5,2 4,4 4 2 N 1030,8 -
21.10.2018 06:00:00 4,6 3,8 4 2 WNW 1031,2 -
21.10.2018 05:00:00 3,9 3,0 4 2 NNW 1031,0 -
21.10.2018 04:00:00 4,6 3,8 4 2 N 1031,0 -
21.10.2018 03:00:00 5,4 4,4 4 2 N 1031,0 -
21.10.2018 02:00:00 6,0 4,9 4 2 N 1031,3 -
21.10.2018 01:00:00 6,2 5,0 4 2 N 1031,5 -
21.10.2018 00:00:00 6,3 5,0 4 2 WSW 1031,6 -
20.10.2018 23:00:00 7,4 5,6 4 2 NNW 1031,5 -
20.10.2018 22:00:00 8,8 6,5 4 2 N 1031,1 -
20.10.2018 21:00:00 8,8 6,0 4 2 N 1031,2 -
20.10.2018 20:00:00 10,4 6,3 4 2 N 1031,1 -
20.10.2018 19:00:00 12,1 5,9 7 4 NNW 1030,7 -
20.10.2018 18:00:00 13,5 5,7 11 6 N 1030,1 -
20.10.2018 17:00:00 14,4 6,3 11 6 NNW 1029,8 -
20.10.2018 16:00:00 14,4 6,5 11 6 NNW 1029,9 -
20.10.2018 15:00:00 14,0 6,6 7 4 NW 1030,2 -
20.10.2018 14:00:00 13,9 7,1 7 4 W 1031,0 -
20.10.2018 13:00:00 12,2 7,3 7 4 N 1031,6 -
20.10.2018 12:00:00 10,5 7,2 4 2 NNE 1031,7 -
20.10.2018 11:00:00 10,0 7,5 7 4 NW 1031,2 -
20.10.2018 10:00:00 9,6 7,5 7 4 NW 1030,6 -
20.10.2018 09:00:00 9,1 7,7 7 4 WNW 1030,2 -
20.10.2018 08:00:00 8,8 7,7 7 4 WNW 1029,3 -
20.10.2018 07:00:00 8,1 6,8 4 2 WNW 1028,5 -
20.10.2018 06:00:00 9,3 7,5 7 4 WNW 1028,3 -
20.10.2018 05:00:00 10,5 8,2 7 4 WNW 1027,8 -
20.10.2018 04:00:00 11,0 8,3 7 4 WNW 1027,0 -
20.10.2018 03:00:00 11,6 8,7 4 2 NW 1027,0 -
20.10.2018 02:00:00 11,6 8,7 7 4 WNW 1026,7 -
20.10.2018 01:00:00 11,6 8,8 4 2 WNW 1026,4 -
20.10.2018 00:00:00 11,7 9,1 4 2 N 1025,9 -
19.10.2018 23:00:00 12,8 9,3 7 4 NW 1025,9 -
19.10.2018 22:00:00 13,7 9,9 4 2 N 1025,6 -
19.10.2018 21:00:00 14,3 9,6 4 2 NW 1025,2 -
19.10.2018 20:00:00 14,4 9,7 7 4 NW 1024,5 -
19.10.2018 19:00:00 14,9 9,8 7 4 NW 1023,4 15
19.10.2018 18:00:00 16,4 9,5 7 4 NW 1022,9 15
19.10.2018 17:00:00 16,9 9,4 7 4 WNW 1023,0 13
19.10.2018 16:00:00 16,5 9,2 7 4 NW 1023,2 11
19.10.2018 15:00:00 15,9 9,0 7 4 N 1023,6 10
19.10.2018 14:00:00 14,8 8,7 7 4 WNW 1024,0 10
19.10.2018 13:00:00 13,9 8,7 7 4 NW 1024,7 10
19.10.2018 12:00:00 12,6 7,8 4 2 NNE 1025,0 9
19.10.2018 11:00:00 10,6 7,7 4 2 NNE 1025,4 7
19.10.2018 10:00:00 9,4 8,3 4 2 NNW 1025,3 6
19.10.2018 09:00:00 8,6 7,6 4 2 NW 1024,9 2,5
19.10.2018 08:00:00 8,1 7,4 4 2 NW 1024,5 6
19.10.2018 07:00:00 7,6 6,8 4 2 N 1024,3 7
19.10.2018 06:00:00 8,3 7,3 4 2 N 1024,1 -
19.10.2018 05:00:00 8,9 7,7 4 2 N 1023,9 -
19.10.2018 04:00:00 10,5 8,0 4 2 N 1023,7 -
19.10.2018 03:00:00 11,8 7,8 4 2 NNE 1023,6 -
19.10.2018 02:00:00 13,3 8,1 4 2 NNE 1023,7 -
19.10.2018 01:00:00 14,2 8,5 7 4 N 1023,6 -
19.10.2018 00:00:00 15,2 8,9 4 2 N 1023,7 -
18.10.2018 23:00:00 15,6 9,0 7 4 N 1023,8 -
18.10.2018 22:00:00 15,4 9,2 4 2 NW 1023,5 -
18.10.2018 21:00:00 15,8 9,3 7 4 N 1023,1 15
18.10.2018 20:00:00 16,1 10,1 11 6 N 1022,8 15
18.10.2018 19:00:00 16,4 10,5 7 4 NW 1022,5 15
18.10.2018 18:00:00 17,1 10,7 7 4 NNW 1022,2 12
18.10.2018 17:00:00 17,1 11,1 11 6 NNW 1022,3 12
18.10.2018 16:00:00 16,8 11,4 11 6 NNW 1022,5 7
18.10.2018 15:00:00 16,8 11,4 7 4 NNW 1022,5 6
18.10.2018 14:00:00 16,0 11,0 7 4 NW 1022,8 10
18.10.2018 13:00:00 15,4 10,7 11 6 NW 1023,1 8
18.10.2018 12:00:00 15,1 10,7 7 4 SSW 1023,0 8
18.10.2018 11:00:00 14,0 11,0 4 2 SSE 1023,0 6
18.10.2018 10:00:00 13,2 10,8 7 4 NNW 1023,0 3,0
18.10.2018 09:00:00 13,0 11,4 7 4 N 1022,5 3,0
18.10.2018 08:00:00 12,5 10,9 7 4 N 1022,0 3,5
18.10.2018 07:00:00 11,8 10,6 4 2 NW 1021,6 3,5

tt = Température de l'air
td = dewpoint
ff = Vitesse du vent
dd = Direction du vent
ppp = reduced air pressure
vv = visibility

stations d'obs. à proximité